Location: Gälforsberget
(66.6500°N, 22.4167°E)
Time: 21:58:59
(UTC+00:00)

Cosmos 2228 - Pass Details

Date: 11 April 2026
Orbit: 561 x 588 km, 82.5° (Epoch: 13 May)

Event Time Altitude Azimuth Distance (km) Brightness Sun altitude
Exits shadow 22:42:01 17° 140° (SE) 1,511 4.6 -14.7°
Maximum altitude 22:44:30 30° 90° (E) 1,061 4.3 -14.7°
Drops below altitude 10° 22:48:12 10° 29° (NNE) 1,914 6.6 -14.7°
Sets 22:50:35 0° 19° (NNE) 2,813 8.1 -14.7°
